Weather History for McComb, MS

Change the Weather History Date:

Monday, August 6, 2012

  Actual Average Record
Temperature  
Mean Temperature 82 °F -  
Max Temperature 91 °F 91 °F 98 °F (1972)
Min Temperature 73 °F 69 °F 61 °F (1974)
Cooling Degree Days 17    
Growing Degree Days 32 (Base 50)    
Moisture  
Dew Point 73 °F    
Average Humidity 83    
Maximum Humidity 100    
Minimum Humidity 55    
Precipitation  
Precipitation 0.27 in - - ()
Sea Level Pressure  
Sea Level Pressure 30.03 in    
Wind  
Wind Speed 2 mph (NNW)    
Max Wind Speed 16 mph    
Max Gust Speed 24 mph    
Visibility 8 miles    
Events Rain , Thunderstorm    
Averages and records for this station are not official NWS values.
T = Trace of Precipitation, MM = Missing Value Source: NWS Daily Summary

Daily Weather History Graph

Daily Weather History Graph

Search for Another Location

Airport:

Trip Planner

Search our weather history database for the weather conditions in past years. The results will help you decide how hot, cold, wet, or windy it might be!

Date:

Astronomy

Aug. 06, 2012 Rise Set
Actual Time 6:22 AM CDT 7:52 PM CDT
Civil Twilight 5:56 AM CDT 8:18 PM CDT
Nautical Twilight 5:25 AM CDT 8:49 PM CDT
Astronomical Twilight 4:52 AM CDT 9:22 PM CDT
Moon 10:27 PM CDT (8/6) 10:47 AM CDT (8/6)
Length of Visible Light 14h 22m
Length of Day
13h 30m
Waning Gibbous, 78% of the Moon is Illuminated
Aug 6
Waning Gibbous
Aug 9
Last Quarter
Aug 17
New
Aug 24
First Quarter
Aug 31
Full

Hourly Weather History & Observations

Time (CDT) Temp. Heat Index Dew Point Humidity Pressure Visibility Wind Dir Wind Speed Gust Speed Precip Events Conditions
12:53 AM 73.9 °F - 73.9 °F 100% 30.06 in 6.0 mi Calm Calm - N/A   Clear
1:53 AM 75.0 °F - 73.9 °F 96% 30.05 in 7.0 mi Calm Calm - N/A   Clear
2:53 AM 73.9 °F - 73.0 °F 97% 30.04 in 7.0 mi Calm Calm - N/A   Clear
3:53 AM 73.0 °F - 73.0 °F 100% 30.04 in 5.0 mi Calm Calm - N/A   Clear
4:53 AM 73.0 °F - 72.0 °F 96% 30.03 in 5.0 mi Calm Calm - N/A   Clear
5:53 AM 73.9 °F - 73.0 °F 97% 30.05 in 8.0 mi Calm Calm - N/A   Clear
6:53 AM 73.9 °F - 73.0 °F 97% 30.07 in 8.0 mi Calm Calm - N/A   Clear
7:53 AM 78.1 °F - 73.9 °F 87% 30.08 in 9.0 mi North 5.8 mph - N/A   Clear
8:53 AM 82.0 °F 87.9 °F 73.9 °F 76% 30.07 in 10.0 mi North 4.6 mph - N/A   Clear
9:53 AM 84.9 °F 93.3 °F 75.0 °F 72% 30.08 in 10.0 mi North 4.6 mph - N/A   Clear
10:53 AM 87.1 °F 95.4 °F 73.9 °F 65% 30.08 in 10.0 mi NNW 3.5 mph - N/A   Mostly Cloudy
11:09 AM 87.8 °F 95.6 °F 73.4 °F 62% 30.09 in 10.0 mi Calm Calm - N/A   Scattered Clouds
11:37 AM 87.8 °F 95.6 °F 73.4 °F 62% 30.09 in 10.0 mi WNW 5.8 mph - N/A   Mostly Cloudy
11:53 AM 87.1 °F 95.4 °F 73.9 °F 65% 30.07 in 10.0 mi NNW 3.5 mph - N/A   Mostly Cloudy
12:53 PM 89.1 °F 99.1 °F 75.0 °F 63% 30.05 in 10.0 mi NW 8.1 mph - N/A   Scattered Clouds
1:53 PM 89.1 °F 98.0 °F 73.9 °F 61% 30.02 in 10.0 mi Calm Calm - N/A   Mostly Cloudy
2:53 PM 91.0 °F 99.3 °F 73.0 °F 55% 29.99 in 10.0 mi Calm Calm - N/A   Partly Cloudy
3:37 PM 89.6 °F 98.2 °F 73.4 °F 59% 29.98 in 10.0 mi WNW 4.6 mph - N/A Thunderstorm Mostly Cloudy
3:53 PM 90.0 °F 99.0 °F 73.9 °F 59% 29.96 in 10.0 mi Variable 3.5 mph - N/A Thunderstorm Overcast
4:29 PM 75.2 °F - 69.8 °F 83% 30.02 in 1.5 mi NE 16.1 mph 24.2 mph 0.10 in Rain , Thunderstorm Thunderstorms and Rain
4:50 PM 73.4 °F - 69.8 °F 88% 30.00 in 3.0 mi Calm Calm - 0.25 in Rain , Thunderstorm Thunderstorms and Rain
4:53 PM 73.9 °F - 70.0 °F 87% 29.99 in 3.0 mi WNW 3.5 mph - 0.25 in Rain , Thunderstorm Thunderstorms and Rain
5:53 PM 75.9 °F - 73.0 °F 91% 29.99 in 10.0 mi North 3.5 mph - 0.02 in   Clear
6:53 PM 75.0 °F - 73.0 °F 94% 29.98 in 7.0 mi SE 4.6 mph - N/A   Clear
7:53 PM 75.0 °F - 73.0 °F 94% 29.98 in 10.0 mi West 3.5 mph - N/A   Clear
8:53 PM 75.0 °F - 73.0 °F 94% 29.99 in 10.0 mi Calm Calm - N/A   Clear
9:53 PM 73.9 °F - 73.0 °F 97% 29.99 in 9.0 mi Calm Calm - N/A   Clear
10:53 PM 73.9 °F - 73.0 °F 97% 29.99 in 6.0 mi Calm Calm - N/A   Clear
11:53 PM 73.0 °F - 73.0 °F 100% 29.97 in 4.0 mi Calm Calm - N/A   Clear